Home > Weather > Ostrava > Past weeks

Flag for Czech Republic Weather for the Past 2 Weeks in Ostrava, Czech Republic

Now
47 °F

Rain. Overcast.


Feels Like: 42 °F
Forecast: 45 / 52 °F
Wind: 13 mph from Southwest

Location: Ostrava / Mosnov

Current Time: Feb 9, 2016 at 12:57:33 AM

Latest Report: Feb 8, 2016 at 11:00 PM


Visibility: 5 mi

Pressure: 29.75 "Hg

Humidity: 82%

Dew point: 42 °F

Location of OstravaLocation

Historic Weather in Ostrava — Graph

°F

Ostrava Temperature Yesterday

Maximum temperature yesterday: 51 °F (at 8:00 PM)
Minimum temperature yesterday: 43 °F (at 5:00 AM)
Average temperature yesterday: 48 °F

High & Low Weather Summary for the Past Weeks

 TemperatureHumidityPressure
High53 °F (Feb 2, 2:00 PM)99% (Jan 26, 8:00 AM)30.50 "Hg (Jan 26, 8:00 AM)
Low29 °F (Feb 5, 8:00 PM)51% (Feb 7, 1:00 PM)29.67 "Hg (Feb 8, 9:00 PM)
Average42 °F77%30.11 "Hg
* Reported Jan 24 10:00 PM — Feb 8 10:00 PM, Ostrava, Weather by CustomWeather, © 2016

Note: Actual official high and low records may vary slightly from our data, if they occured in-between our weather recording intervals... More about our weather records

Advertising

Ostrava Weather History for the Previous 24 Hours

 ConditionsComfort  
Time TempWeatherWind HumidityBarometerVisibility
10:00 PM
Mon, Feb 8
51 °FOvercast.10 mph66%29.68 "Hg19 mi
9:00 PM51 °FOvercast.10 mph65%29.67 "Hg19 mi
8:00 PM51 °FOvercast.10 mph65%29.67 "Hg19 mi
7:00 PM50 °FOvercast.10 mph66%29.69 "Hg19 mi
6:00 PM50 °FOvercast.10 mph66%29.71 "Hg19 mi
5:00 PM49 °FOvercast.10 mph66%29.72 "Hg19 mi
4:00 PM49 °FOvercast.9 mph67%29.72 "Hg19 mi
3:00 PM49 °FPartly sunny.10 mph65%29.75 "Hg19 mi
2:00 PM49 °FPartly sunny.9 mph65%29.80 "Hg19 mi
1:00 PM47 °FOvercast.8 mph69%29.84 "Hg19 mi
12:00 PM47 °FOvercast.9 mph67%29.86 "Hg19 mi
11:00 AM48 °FOvercast.7 mph64%29.89 "Hg16 mi
10:00 AM47 °FOvercast.7 mph68%29.90 "Hg16 mi
9:00 AM46 °FOvercast.6 mph69%29.91 "Hg16 mi
8:00 AM44 °FOvercast.6 mph71%29.91 "Hg16 mi
7:00 AM44 °FOvercast.6 mph71%29.91 "Hg12 mi
5:00 AM43 °FOvercast.6 mph73%29.91 "Hg16 mi
3:00 AM43 °FOvercast.5 mph68%29.89 "Hg16 mi
2:00 AM48 °FPassing clouds.7 mph59%29.85 "Hg16 mi
1:00 AM48 °FPassing clouds.8 mph59%29.85 "Hg16 mi
Weather by CustomWeather, © 2016

See weather overviewHow to use our weather pages